星链-11726 (STARLINK-11726)

导读 | 豆包AI

STARLINK-11726是美国太空探索技术公司Starlink卫星互联网星座中的一员,于2025年5月21日发射入轨。该卫星延续星链设计,为全球提供低延迟、高速率的宽带互联网服务,尤其覆盖偏远与基础设施匮乏地区。它的入轨进一步扩充了星链星座规模,提升了星座服务容量与覆盖稳定性,是星链全球组网进程的组成部分。

基本信息
目录编号:
64067
目录名称:
STARLINK-11726
国际标识:
2025-107D
轨道中心:
EARTH
卫星名称:
星链-11726
卫星全名:
星链-11726 (STARLINK-11726)
卫星状态:
在轨 (已飞行346 天)
发射日期:
2025-05-21 UTC
国别 :
美国 (US)
星等 :
--
轨道信息
数据来源 国际轨道数据
星历时间: 2026-05-02T09:29:21+0800
9小时前
查看轨道信息
半长轴: 6734.601km
偏心率: 0.0001686
轨道倾角: 42.998°
近地点辐角 268.994°
升交点赤经 136.387°
平近点角 91.073°
近地点: 355.328km
远地点: 357.6km
周期: 91.670分钟
每日圈数: 15.70851
详细信息
固有亮度:
5
最大亮度:
2.5
卫星平台:
Starlink V1.0
覆盖范围:
全球
运营商:
太空探索技术公司
运营商所在国:
美国
制造商(研发单位):
太空探索技术公司
制造商所在国:
美国
使用方式:
暂无
卫星简介
Starlink 计划是 SpaceX 推出的全球卫星互联网项目,通过发射低轨道卫星,为全球尤其是偏远地区提供高速、低延迟的互联网服务。自 2019 年起,Starlink 已部署数千颗卫星,旨在缩小全球数字鸿沟,推动互联网普及。该项目还为军事、航空等行业提供通信支持,带来广泛经济效益。
2D轨道图
3D轨道图
轨道高度分析图
轨道倾角分析图
轨道综合分析图
查看轨道综合分析图